Date String (YYYY-MM-DD hh:mm:ss) UTC,Instrument flags,Ambient pressure (hPa),Sample flow (lpm),Bypass flow (lpm),Sample temperature (°C),Ambient temperature (°C),ASC tube jacket temperature (°C),LED temperature (°C),Box temperature (°C),Sample RH (%),Span deviation,Mass concentration (μg/m³),Mass concentration (μg/m³),Mass concentration (μg/m³)
DateTimeUTC,F1_M11,P_M11,Q1_M11,Q2_M11,T1_M11,T2_M11,T3_M11,T4_M11,T5_M11,U1_M11,ZSPAN_M11,X0_M11,X2_M11,X1_M11
2022-02-17 22:00:00,,0825.2,5.00,0.00,21.1,20.6,00.0,30.2,22.5,08.0,0000.0,0005.08,0003.90,0003.70
2022-02-17 22:01:00,,0825.1,5.00,0.00,21.0,20.4,00.0,30.2,22.4,08.0,0000.0,0005.05,0003.92,0003.72
2022-02-17 22:02:00,,0825.0,5.00,0.00,20.9,20.3,00.0,30.2,22.3,08.3,0000.0,0005.09,0003.95,0003.75
2022-02-17 22:03:00,,0825.1,5.01,0.00,20.8,20.1,00.0,30.1,22.3,08.3,0000.0,0005.19,0003.97,0003.77
2022-02-17 22:04:00,,0825.0,5.01,0.00,20.8,20.0,00.0,30.1,22.2,08.2,0000.0,0006.56,0004.02,0003.79
2022-02-17 22:05:00,,0824.9,4.99,0.00,20.7,19.9,00.0,30.1,22.1,08.1,0000.0,0006.59,0004.04,0003.81
2022-02-17 22:06:00,,0824.9,4.99,0.00,20.7,20.3,00.0,30.0,22.2,08.3,0000.0,0006.68,0004.06,0003.82
2022-02-17 22:07:00,,0824.9,5.00,0.00,20.9,21.4,00.0,30.1,22.6,08.1,0000.0,0006.70,0004.07,0003.84
2022-02-17 22:08:00,,0824.9,5.01,0.00,21.1,22.3,00.0,30.1,23.0,08.2,0000.0,0006.78,0004.08,0003.85
2022-02-17 22:09:00,,0824.9,5.00,0.00,21.2,22.3,00.0,30.2,23.1,08.1,0000.0,0006.94,0004.12,0003.86
2022-02-17 22:10:00,,0824.9,4.99,0.00,21.2,21.8,00.0,30.2,22.9,08.0,0000.0,0006.98,0004.13,0003.88
2022-02-17 22:11:00,,0824.9,4.99,0.00,21.1,21.4,00.0,30.2,22.7,08.1,0000.0,0006.93,0004.14,0003.90
2022-02-17 22:12:00,,0824.9,5.00,0.00,21.0,21.0,00.0,30.1,22.6,08.4,0000.0,0006.94,0004.14,0003.92
2022-02-17 22:13:00,,0824.8,5.01,0.00,21.0,20.8,00.0,30.1,22.5,08.5,0000.0,0007.07,0004.18,0003.93
2022-02-17 22:14:00,,0824.8,4.99,0.00,20.9,20.6,00.0,30.1,22.4,08.7,0000.0,0007.13,0004.20,0003.95
2022-02-17 22:15:00,,0824.8,5.00,0.00,20.9,20.5,00.0,30.1,22.4,08.7,0000.0,0005.71,0004.20,0003.97
2022-02-17 22:16:00,,0824.8,5.00,0.00,20.8,20.3,00.0,30.1,22.3,08.4,0000.0,0005.75,0004.22,0003.99
2022-02-17 22:17:00,,0824.6,5.00,0.00,20.8,20.1,00.0,30.0,22.2,08.3,0000.0,0005.87,0004.25,0004.01
2022-02-17 22:18:00,,0824.7,5.02,0.00,20.7,20.0,00.0,30.0,22.1,08.5,0000.0,0006.03,0004.27,0004.02
2022-02-17 22:19:00,,0824.6,5.00,0.00,20.6,20.1,00.0,30.0,22.1,08.3,0000.0,0006.02,0004.26,0004.03
2022-02-17 22:20:00,,0824.8,4.99,0.00,20.8,21.1,00.0,30.0,22.5,08.4,0000.0,0005.87,0004.24,0004.03
2022-02-17 22:21:00,,0824.6,5.01,0.00,21.0,22.1,00.0,30.0,22.9,08.1,0000.0,0005.81,0004.24,0004.04
2022-02-17 22:22:00,,0824.6,5.01,0.00,21.2,22.3,00.0,30.1,23.1,08.1,0000.0,0005.86,0004.25,0004.05
2022-02-17 22:23:00,,0824.6,5.00,0.00,21.2,22.0,00.0,30.1,23.0,08.3,0000.0,0005.93,0004.26,0004.05
2022-02-17 22:24:00,,0824.6,5.00,0.00,21.1,21.6,00.0,30.1,22.8,08.3,0000.0,0006.02,0004.30,0004.07
2022-02-17 22:25:00,,0824.6,5.00,0.00,21.1,21.4,00.0,30.1,22.7,08.5,0000.0,0006.16,0004.32,0004.09
2022-02-17 22:26:00,,0824.6,5.00,0.00,21.1,21.2,00.0,30.1,22.7,08.7,0000.0,0006.28,0004.34,0004.12
2022-02-17 22:27:00,,0824.6,5.00,0.00,21.0,20.9,00.0,30.1,22.6,08.5,0000.0,0006.67,0004.37,0004.14
2022-02-17 22:28:00,,0824.6,5.01,0.00,21.0,20.7,00.0,30.1,22.5,08.5,0000.0,0007.07,0004.40,0004.19
2022-02-17 22:29:00,,0824.5,5.00,0.00,20.9,20.6,00.0,30.1,22.4,08.8,0000.0,0006.98,0004.44,0004.24
2022-02-17 22:30:00,,0824.4,5.00,0.00,20.9,20.5,00.0,30.1,22.4,08.8,0000.0,0007.02,0004.52,0004.31
2022-02-17 22:31:00,,0824.4,5.00,0.00,20.9,20.4,00.0,30.0,22.4,08.8,0000.0,0007.24,0004.60,0004.37
2022-02-17 22:32:00,,0824.4,4.99,0.00,20.8,20.4,00.0,30.0,22.3,08.7,0000.0,0007.34,0004.66,0004.42
2022-02-17 22:33:00,,0824.4,5.01,0.00,20.8,20.3,00.0,30.0,22.3,08.8,0000.0,0007.41,0004.72,0004.48
2022-02-17 22:34:00,,0824.3,5.00,0.00,20.8,20.3,00.0,30.0,22.3,09.0,0000.0,0007.45,0004.76,0004.52
2022-02-17 22:35:00,,0824.3,5.00,0.00,20.8,20.3,00.0,30.0,22.3,09.1,0000.0,0007.50,0004.81,0004.56
2022-02-17 22:36:00,,0824.4,5.00,0.00,20.8,20.8,00.0,30.0,22.5,09.1,0000.0,0007.59,0004.88,0004.60
2022-02-17 22:37:00,,0824.3,5.00,0.00,21.0,21.9,00.0,30.0,22.9,09.0,0000.0,0007.67,0004.95,0004.63
2022-02-17 22:38:00,,0824.3,5.02,0.00,21.2,22.7,00.0,30.1,23.3,09.2,0000.0,0007.96,0004.99,0004.67
2022-02-17 22:39:00,,0824.4,4.99,0.00,21.3,22.5,00.0,30.1,23.3,09.2,0000.0,0008.08,0005.01,0004.68
2022-02-17 22:40:00,,0824.4,5.02,0.00,21.4,22.2,00.0,30.2,23.2,09.0,0000.0,0008.15,0005.03,0004.69
2022-02-17 22:41:00,,0824.3,4.99,0.00,21.4,21.9,00.0,30.2,23.2,08.9,0000.0,0008.17,0005.06,0004.70
2022-02-17 22:42:00,,0824.3,5.01,0.00,21.3,21.6,00.0,30.2,23.1,09.0,0000.0,0008.15,0005.06,0004.72
2022-02-17 22:43:00,,0824.3,5.00,0.00,21.3,21.4,00.0,30.2,23.0,08.8,0000.0,0008.18,0005.08,0004.74
2022-02-17 22:44:00,,0824.3,4.99,0.00,21.3,21.3,00.0,30.2,22.9,08.8,0000.0,0008.22,0005.10,0004.75
2022-02-17 22:45:00,,0824.2,5.02,0.00,21.2,21.1,00.0,30.2,22.9,08.9,0000.0,0008.58,0005.12,0004.78
2022-02-17 22:46:00,,0824.2,5.00,0.00,21.2,21.0,00.0,30.2,22.8,08.8,0000.0,0008.94,0005.12,0004.79
2022-02-17 22:47:00,,0824.1,4.99,0.00,21.2,20.9,00.0,30.2,22.8,08.8,0000.0,0008.86,0005.10,0004.81
2022-02-17 22:48:00,,0824.1,5.00,0.00,21.2,20.8,00.0,30.2,22.8,08.8,0000.0,0008.88,0005.12,0004.84
2022-02-17 22:49:00,,0824.1,5.00,0.00,21.1,20.7,00.0,30.2,22.7,08.8,0000.0,0008.53,0005.14,0004.86
2022-02-17 22:50:00,,0824.2,5.00,0.00,21.1,20.7,00.0,30.2,22.7,08.9,0000.0,0008.20,0005.19,0004.89
2022-02-17 22:51:00,,0824.1,5.00,0.00,21.1,20.6,00.0,30.2,22.7,09.0,0000.0,0008.23,0005.21,0004.90
2022-02-17 22:52:00,,0824.1,5.00,0.00,21.1,20.6,00.0,30.2,22.7,09.1,0000.0,0008.35,0005.22,0004.91
2022-02-17 22:53:00,,0824.1,5.01,0.00,21.1,20.5,00.0,30.2,22.6,08.9,0000.0,0008.56,0005.24,0004.92
2022-02-17 22:54:00,,0824.0,4.99,0.00,21.0,20.5,00.0,30.2,22.6,08.9,0000.0,0008.71,0005.26,0004.93
2022-02-17 22:55:00,,0824.0,5.00,0.00,21.0,20.5,00.0,30.1,22.5,09.1,0000.0,0008.90,0005.26,0004.92
2022-02-17 22:56:00,,0824.0,5.00,0.00,21.0,20.5,00.0,30.1,22.5,09.1,0000.0,0009.17,0005.26,0004.91
2022-02-17 22:57:00,,0824.0,5.01,0.00,21.0,20.5,00.0,30.1,22.5,09.0,0000.0,0009.28,0005.25,0004.91
2022-02-17 22:58:00,,0824.0,5.00,0.00,20.9,20.4,00.0,30.1,22.5,09.0,0000.0,0009.32,0005.23,0004.90
2022-02-17 22:59:00,,0824.0,4.99,0.00,20.9,20.4,00.0,30.1,22.6,08.9,0000.0,0009.37,0005.22,0004.90
